EW0943 Weather Reports


time (UTC)temp
C
wind
direction
speed
KPH
gust
KPH
rain 1hr
cm
rain 24hr
cm
rain mn
cm
humidity
%
barometer
mb
20260906145451 23 70 4.8 8.0 0.00 0.00 0.00 49 1020.9
20260906144937 23 94 3.2 8.0 0.00 0.00 0.00 49 1020.9
20260906144437 23 121 6.4 11.3 0.00 0.00 0.00 50 1021.0
20260906143951 22 115 1.6 11.3 0.00 0.00 0.00 50 1020.9
20260906143437 22 68 6.4 9.7 0.00 0.00 0.00 48 1020.9
20260906142936 22 131 3.2 11.3 0.00 0.00 0.00 46 1020.9
20260906142437 22 105 4.8 11.3 0.00 0.00 0.00 45 1020.9
20260906141951 22 94 1.6 11.3 0.00 0.00 0.00 40 1020.9
20260906141436 22 110 3.2 11.3 0.00 0.00 0.00 39 1021.0
20260906140936 22 117 8.0 9.7 0.00 0.00 0.00 32 1020.8
20260906135951 21 86 4.8 9.7 0.00 0.00 0.00 7 1020.7
20260906135436 20 100 3.2 6.4 0.00 0.00 0.00 100 1020.5
20260906134935 19 43 1.6 4.8 0.00 0.00 0.00 100 1020.6
20260906134435 18 71 3.2 4.8 0.00 0.00 0.00 100 1020.7
20260906133935 18 88 1.6 4.8 0.00 0.00 0.00 100 1020.6
20260906133436 19 48 3.2 4.8 0.00 0.00 0.00 100 1020.6
20260906132936 19 64 3.2 3.2 0.00 0.00 0.00 100 1020.5
20260906132436 19 80 0.0 3.2 0.00 0.00 0.00 100 1020.5
20260906131936 18 64 3.2 3.2 0.00 0.00 0.00 100 1020.5
20260906131436 18 75 0.0 1.6 0.00 0.00 0.00 100 1020.4
20260906130936 18 36 1.6 1.6 0.00 0.00 0.00 100 1020.4
20260906130436 18 16 0.0 0.0 0.00 0.00 0.00 100 1020.5
20260906125935 17 16 0.0 0.0 0.00 0.00 0.00 100 1020.2
20260906125436 17 16 0.0 0.0 0.00 0.00 0.00 100 1020.3
20260906124936 17 16 0.0 0.0 0.00 0.00 0.00 100 1020.2
20260906124435 17 13 0.0 0.0 0.00 0.00 0.00 100 1020.1
20260906123936 18 332 0.0 0.0 0.00 0.00 0.00 100 1020.0
20260906123436 16 309 0.0 0.0 0.00 0.00 0.00 100 1019.7
20260906122936 16 309 0.0 0.0 0.00 0.00 0.00 100 1019.7
20260906122436 16 309 0.0 0.0 0.00 0.00 0.00 100 1019.7
20260906121935 16 309 0.0 0.0 0.00 0.00 0.00 100 1019.6
20260906121436 16 309 0.0 0.0 0.00 0.00 0.00 100 1019.7
20260906120936 16 309 0.0 0.0 0.00 0.00 0.00 100 1019.5
20260906120451 16 309 0.0 0.0 0.00 0.00 0.00 100 1019.5
20260906115935 16 309 0.0 0.0 0.00 0.00 0.00 100 1019.4
20260906115435 16 309 0.0 0.0 0.00 0.00 0.00 100 1019.4
20260906114936 16 309 0.0 0.0 0.00 0.00 0.00 100 1019.4
20260906114436 16 309 0.0 0.0 0.00 0.00 0.00 100 1019.3
20260906113935 16 309 0.0 0.0 0.00 0.00 0.00 100 1019.4
20260906113436 16 309 0.0 0.0 0.00 0.00 0.00 100 1019.3
20260906112935 16 309 0.0 0.0 0.00 0.00 0.00 100 1019.1
20260906112436 16 309 0.0 0.0 0.00 0.00 0.00 100 1018.9
20260906111935 16 309 0.0 0.0 0.00 0.00 0.00 100 1019.0
20260906111436 16 309 0.0 0.0 0.00 0.00 0.00 100 1019.0
20260906110936 16 309 0.0 0.0 0.00 0.00 0.00 100 1018.9
20260906110435 16 309 0.0 0.0 0.00 0.00 0.00 100 1018.7
20260906105935 16 309 0.0 0.0 0.00 0.00 0.00 100 1018.8
20260906105436 16 309 0.0 0.0 0.00 0.00 0.00 100 1018.9
20260906104935 16 309 0.0 0.0 0.00 0.00 0.00 100 1018.9
20260906104451 16 309 0.0 0.0 0.00 0.00 0.00 100 1018.9
20260906103935 16 309 0.0 0.0 0.00 0.00 0.00 100 1018.9
20260906103435 16 309 0.0 0.0 0.00 0.00 0.00 100 1018.9
20260906102935 16 309 0.0 0.0 0.00 0.00 0.00 100 1019.1
20260906102505 16 309 0.0 0.0 0.00 0.00 0.00 100 1019.0
20260906101935 16 309 0.0 0.0 0.00 0.00 0.00 100 1019.0
20260906101435 16 309 0.0 0.0 0.00 0.00 0.00 100 1018.9
20260906100935 16 309 0.0 0.0 0.00 0.00 0.00 100 1018.9
20260906100435 16 309 0.0 0.0 0.00 0.00 0.00 100 1019.0
20260906100020 16 309 0.0 0.0 0.00 0.00 0.00 100 1018.9
20260906095435 16 309 0.0 0.0 0.00 0.00 0.00 100 1018.9
20260906094935 16 309 0.0 0.0 0.00 0.00 0.00 100 1018.8
20260906094436 16 309 0.0 0.0 0.00 0.00 0.00 100 1018.7
20260906093935 16 309 0.0 0.0 0.00 0.00 0.00 100 1018.7
20260906093435 16 309 0.0 0.0 0.00 0.00 0.00 100 1018.8
20260906092935 16 309 0.0 0.0 0.00 0.00 0.00 100 1018.8
20260906092450 16 309 0.0 0.0 0.00 0.00 0.00 100 1018.8
20260906091950 16 309 0.0 0.0 0.00 0.00 0.00 100 1018.7
20260906091435 16 309 0.0 0.0 0.00 0.00 0.00 100 1018.7
20260906090935 16 309 0.0 0.0 0.00 0.00 0.00 100 1018.8
20260906090435 16 309 0.0 0.0 0.00 0.00 0.00 100 1018.7
20260906085935 16 309 0.0 0.0 0.00 0.00 0.00 100 1018.7
20260906085451 16 309 0.0 0.0 0.00 0.00 0.00 100 1018.6
20260906084950 16 309 0.0 0.0 0.00 0.00 0.00 100 1018.6
20260906084436 16 309 0.0 0.0 0.00 0.00 0.00 100 1018.6
20260906083935 16 309 0.0 0.0 0.00 0.00 0.00 100 1018.7
20260906083436 16 309 0.0 0.0 0.00 0.00 0.00 100 1018.8
20260906082935 16 309 0.0 0.0 0.00 0.00 0.00 100 1018.7
20260906082435 16 309 0.0 0.0 0.00 0.00 0.00 100 1018.8
20260906081935 16 309 0.0 0.0 0.00 0.00 0.00 100 1018.7
20260906081435 16 309 0.0 0.0 0.00 0.00 0.00 100 1018.7
20260906081035 16 309 0.0 0.0 0.00 0.00 0.00 100 1018.7
20260906080435 16 309 0.0 0.0 0.00 0.00 0.00 100 1018.6
20260906075935 16 309 0.0 0.0 0.00 0.00 0.00 100 1018.6
20260906075435 16 330 0.0 0.0 0.00 0.00 0.00 100 1018.4
20260906074935 16 330 0.0 1.6 0.00 0.00 0.00 100 1018.4
20260906074435 16 330 0.0 1.6 0.00 0.00 0.00 100 1018.4
20260906073935 16 307 0.0 1.6 0.00 0.00 0.00 100 1018.5
20260906073435 16 276 0.0 3.2 0.00 0.00 0.00 100 1018.5
20260906072935 16 269 0.0 3.2 0.00 0.00 0.00 100 1018.4
20260906072435 16 301 0.0 3.2 0.00 0.00 0.00 100 1018.3
20260906071935 16 271 0.0 1.6 0.00 0.00 0.00 100 1018.2
20260906071435 16 250 1.6 1.6 0.00 0.00 0.00 100 1018.1
20260906070950 15 250 0.0 1.6 0.00 0.00 0.00 100 1018.1
20260906070435 15 248 0.0 0.0 0.00 0.00 0.00 100 1018.1
20260906065935 15 248 0.0 0.0 0.00 0.00 0.00 100 1018.1
20260906065435 16 248 0.0 0.0 0.00 0.00 0.00 100 1018.2
20260906064935 16 248 0.0 1.6 0.00 0.00 0.00 100 1018.3
20260906064450 16 248 0.0 1.6 0.00 0.00 0.00 100 1018.3
20260906063935 16 248 0.0 1.6 0.00 0.00 0.00 100 1018.3
20260906063435 16 248 0.0 1.6 0.00 0.00 0.00 100 1018.3
20260906062935 16 261 0.0 1.6 0.00 0.00 0.00 100 1018.4
20260906062435 16 274 0.0 1.6 0.00 0.00 0.00 100 1018.3
20260906062020 16 276 0.0 1.6 0.00 0.00 0.00 100 1018.3
20260906061435 16 276 0.0 0.0 0.00 0.00 0.00 100 1018.3
20260906060935 16 275 0.0 1.6 0.00 0.00 0.00 100 1018.2
20260906060435 16 276 0.0 1.6 0.00 0.00 0.00 100 1018.3
20260906060005 16 276 0.0 1.6 0.00 0.00 0.00 100 1018.1
20260906055435 15 317 0.0 1.6 0.00 0.00 0.00 100 1018.1
20260906054950 15 335 0.0 0.0 0.00 0.00 0.00 100 1018.1
20260906054435 15 335 0.0 0.0 0.00 0.00 0.00 100 1017.9
20260906053935 15 334 0.0 0.0 0.00 0.00 0.00 100 1017.9
20260906053435 15 334 0.0 0.0 0.00 0.00 0.00 100 1018.0
20260906052935 15 334 0.0 0.0 0.00 0.00 0.00 100 1018.0
20260906052450 16 335 0.0 0.0 0.00 0.00 0.00 100 1017.9
20260906051935 16 335 0.0 0.0 0.00 0.00 0.00 100 1017.9
20260906051435 16 335 0.0 0.0 0.00 0.00 0.00 100 1018.0
20260906050935 15 335 0.0 0.0 0.00 0.00 0.00 100 1018.0
20260906050435 16 335 0.0 1.6 0.00 0.00 0.00 100 1018.0
20260906045935 16 334 0.0 1.6 0.00 0.00 0.00 100 1017.9
20260906045435 15 325 0.0 1.6 0.00 0.00 0.00 100 1017.9
20260906044950 15 328 1.6 1.6 0.00 0.00 0.00 100 1017.9
20260906044435 15 327 0.0 0.0 0.00 0.00 0.00 100 1017.9
20260906043935 15 329 0.0 0.0 0.00 0.00 0.00 100 1017.9
20260906043450 15 327 0.0 0.0 0.00 0.00 0.00 100 1017.9
20260906042935 15 329 0.0 0.0 0.00 0.00 0.00 100 1017.8
20260906042435 15 328 0.0 0.0 0.00 0.00 0.00 100 1017.8
20260906041935 15 328 0.0 1.6 0.00 0.00 0.00 100 1017.7
20260906041435 15 328 0.0 1.6 0.00 0.00 0.00 100 1017.8
20260906040935 15 44 0.0 0.0 0.00 0.00 0.00 100 1017.8
20260906040435 15 44 0.0 0.0 0.00 0.00 0.00 100 1017.7
20260906035935 15 44 0.0 0.0 0.00 0.00 0.00 100 1017.7
20260906035435 15 44 0.0 0.0 0.00 0.00 0.00 100 1017.6
20260906034950 15 44 0.0 0.0 0.00 0.00 0.00 100 1017.5
20260906034435 15 44 0.0 0.0 0.00 0.00 0.00 100 1017.4
20260906033935 15 44 0.0 1.6 0.00 0.00 0.00 100 1017.5
20260906033435 15 44 0.0 1.6 0.00 0.00 0.00 100 1017.5
20260906033005 15 44 0.0 0.0 0.00 0.00 0.00 100 1017.4
20260906032435 15 44 0.0 1.6 0.00 0.00 0.00 100 1017.5
20260906031935 15 44 0.0 1.6 0.00 0.00 0.00 100 1017.4
20260906031450 16 44 0.0 3.2 0.00 0.00 0.00 100 1017.6
20260906030935 16 44 0.0 3.2 0.00 0.00 0.00 100 1017.5
20260906030435 16 47 1.6 3.2 0.00 0.00 0.00 100 1017.6
20260906025935 16 47 0.0 6.4 0.00 0.00 0.00 100 1017.6
20260906025435 16 46 3.2 6.4 0.00 0.00 0.00 100 1017.6
20260906024935 16 30 3.2 6.4 0.00 0.00 0.00 100 1017.5
20260906024435 16 40 3.2 3.2 0.00 0.00 0.00 100 1017.5
20260906023935 16 42 1.6 1.6 0.00 0.00 0.00 100 1017.6
20260906023450 16 42 1.6 1.6 0.00 0.00 0.00 100 1017.7
20260906022935 16 43 0.0 3.2 0.00 0.00 0.00 100 1017.6
20260906022435 16 42 1.6 3.2 0.00 0.00 0.00 100 1017.5
20260906021935 16 68 1.6 4.8 0.00 0.00 0.00 100 1017.4
20260906021434 16 65 1.6 8.0 0.00 0.00 0.00 100 1017.4
20260906020935 16 51 3.2 8.0 0.00 0.00 0.00 100 1017.4
20260906020435 16 57 4.8 4.8 0.00 0.00 0.00 100 1017.5
20260906015935 16 36 3.2 4.8 0.00 0.00 0.00 100 1017.4
20260906015435 16 78 0.0 1.6 0.00 0.00 0.00 100 1017.2
20260906014950 16 78 0.0 0.0 0.00 0.00 0.00 100 1017.2
20260906014435 16 78 0.0 1.6 0.00 0.00 0.00 100 1017.1
20260906013935 16 77 0.0 1.6 0.00 0.00 0.00 100 1017.1
20260906013435 16 78 0.0 1.6 0.00 0.00 0.00 100 1016.9
20260906012935 16 78 0.0 1.6 0.00 0.00 0.00 100 1016.9
20260906012435 17 71 0.0 1.6 0.00 0.00 0.00 100 1017.0
20260906011935 17 71 0.0 0.0 0.00 0.00 0.00 100 1016.9
20260906011435 17 71 0.0 0.0 0.00 0.00 0.00 100 1017.1
20260906010935 17 71 0.0 0.0 0.00 0.00 0.00 100 1017.1
20260906010435 17 71 0.0 0.0 0.00 0.00 0.00 100 1017.0
20260906005950 17 71 0.0 1.6 0.00 0.00 0.00 100 1016.9
20260906005434 17 71 0.0 1.6 0.00 0.00 0.00 100 1017.0
20260906004935 17 71 0.0 3.2 0.00 0.00 0.00 100 1017.0
20260906004435 18 71 1.6 4.8 0.00 0.00 0.00 100 1017.1
20260906003935 18 65 3.2 4.8 0.00 0.00 0.00 100 1017.1
20260906003435 18 68 1.6 3.2 0.00 0.00 0.00 100 1017.1
20260906002934 18 50 1.6 4.8 0.00 0.00 0.00 100 1017.1
20260906002434 19 46 3.2 4.8 0.00 0.00 0.00 100 1017.2
20260906001934 20 65 1.6 3.2 0.00 0.00 0.00 100 1017.4
20260906001435 20 64 1.6 3.2 0.00 0.00 0.00 100 1017.3
20260906000935 20 64 0.0 3.2 0.00 0.00 0.00 100 1017.3
20260906000435 20 70 1.6 4.8 0.00 0.00 0.00 2 1017.4
20260906000020 20 66 3.2 4.8 0.00 0.00 0.00 5 1017.3
20260905235450 20 59 1.6 4.8 0.00 0.00 0.00 6 1017.4
20260905234934 20 40 4.8 6.4 0.00 0.00 0.00 6 1017.4
20260905234435 21 59 3.2 6.4 0.00 0.00 0.00 8 1017.3
20260905233935 20 34 4.8 6.4 0.00 0.00 0.00 7 1017.3
20260905233434 21 62 4.8 6.4 0.00 0.00 0.00 8 1017.4
20260905232949 20 46 1.6 4.8 0.00 0.00 0.00 6 1017.4
20260905232450 20 50 0.0 6.4 0.00 0.00 0.00 4 1017.2
20260905231935 21 71 1.6 9.7 0.00 0.00 0.00 7 1017.3
20260905231435 21 44 3.2 14.5 0.00 0.00 0.00 10 1017.2
20260905230934 21 53 6.4 14.5 0.00 0.00 0.00 12 1017.2
20260905230450 21 56 4.8 8.0 0.00 0.00 0.00 9 1017.2
20260905225934 21 60 3.2 11.3 0.00 0.00 0.00 8 1017.2
20260905225435 21 46 3.2 12.9 0.00 0.00 0.00 11 1017.3
20260905224935 21 45 6.4 12.9 0.00 0.00 0.00 5 1017.3
20260905224434 21 56 6.4 12.9 0.00 0.00 0.00 7 1017.1
20260905223935 21 49 4.8 12.9 0.00 0.00 0.00 4 1017.1
20260905223434 20 34 3.2 16.1 0.00 0.00 0.00 100 1016.9
20260905222935 20 53 6.4 17.7 0.00 0.00 0.00 1 1016.9
20260905222435 21 40 14.5 19.3 0.00 0.00 0.00 2 1016.8
20260905221934 21 46 17.7 19.3 0.00 0.00 0.00 1 1016.7
20260905221449 21 74 4.8 17.7 0.00 0.00 0.00 2 1016.7
20260905220935 21 41 9.7 17.7 0.00 0.00 0.00 4 1016.7
20260905220434 21 37 9.7 17.7 0.00 0.00 0.00 7 1016.8
20260905215935 21 53 12.9 17.7 0.00 0.00 0.00 5 1016.7
20260905215434 21 65 9.7 17.7 0.00 0.00 0.00 2 1016.6
20260905214934 21 49 9.7 17.7 0.00 0.00 0.00 100 1016.6
20260905214434 21 32 9.7 14.5 0.00 0.00 0.00 9 1016.7
20260905213935 21 48 14.5 19.3 0.00 0.00 0.00 6 1016.6
20260905213434 21 42 12.9 19.3 0.00 0.00 0.00 7 1016.6
20260905212934 21 38 17.7 17.7 0.00 0.00 0.00 100 1016.6
20260905212434 21 31 6.4 14.5 0.00 0.00 0.00 100 1016.7
20260905211935 21 51 9.7 16.1 0.00 0.00 0.00 100 1016.8
20260905211434 21 39 6.4 16.1 0.00 0.00 0.00 1 1016.9
20260905210935 21 27 8.0 14.5 0.00 0.00 0.00 4 1016.7
20260905210434 21 15 8.0 14.5 0.00 0.00 0.00 7 1016.8
20260905205935 21 25 9.7 12.9 0.00 0.00 0.00 4 1016.7
20260905205435 21 33 11.3 14.5 0.00 0.00 0.00 6 1016.9
20260905204934 21 42 8.0 16.1 0.00 0.00 0.00 4 1016.8
20260905204434 21 25 6.4 16.1 0.00 0.00 0.00 6 1016.8
20260905203934 22 22 12.9 14.5 0.00 0.00 0.00 5 1016.8
20260905203435 21 51 6.4 12.9 0.00 0.00 0.00 100 1016.6
20260905202934 21 31 6.4 14.5 0.00 0.00 0.00 100 1016.5
20260905202434 21 25 8.0 14.5 0.00 0.00 0.00 100 1016.5
20260905201935 21 30 14.5 14.5 0.00 0.00 0.00 100 1016.6
20260905201504 21 6 3.2 11.3 0.00 0.00 0.00 100 1016.6
20260905200935 21 44 6.4 11.3 0.00 0.00 0.00 100 1016.5
20260905200434 21 31 6.4 12.9 0.00 0.00 0.00 100 1016.5
20260905195935 20 34 8.0 14.5 0.00 0.00 0.00 100 1016.6
20260905195434 20 64 8.0 14.5 0.00 0.00 0.00 100 1016.6
20260905194934 20 55 9.7 14.5 0.00 0.00 0.00 100 1016.6
20260905194434 20 59 9.7 12.9 0.00 0.00 0.00 100 1016.6
20260905193934 20 13 8.0 14.5 0.00 0.00 0.00 100 1016.7
20260905193434 20 37 4.8 14.5 0.00 0.00 0.00 100 1016.8
20260905192934 20 41 8.0 19.3 0.00 0.00 0.00 100 1016.7
20260905192434 20 40 12.9 19.3 0.00 0.00 0.00 100 1016.8
20260905191934 20 32 11.3 16.1 0.00 0.00 0.00 100 1016.7
20260905191434 20 43 6.4 14.5 0.00 0.00 0.00 100 1016.7
20260905190934 20 46 11.3 17.7 0.00 0.00 0.00 100 1016.7
20260905190434 20 42 14.5 19.3 0.00 0.00 0.00 100 1016.7
20260905185934 20 56 12.9 19.3 0.00 0.00 0.00 100 1016.7
20260905185435 20 33 8.0 16.1 0.00 0.00 0.00 100 1016.7
20260905184934 20 40 4.8 16.1 0.00 0.00 0.00 100 1016.7
20260905184434 20 32 6.4 16.1 0.00 0.00 0.00 100 1016.6
20260905183934 20 18 8.0 16.1 0.00 0.00 0.00 100 1016.7
20260905183434 20 20 16.1 17.7 0.00 0.00 0.00 100 1016.8
20260905182934 20 34 11.3 17.7 0.00 0.00 0.00 100 1016.8
20260905182434 20 12 9.7 17.7 0.00 0.00 0.00 100 1016.8
20260905181934 20 22 11.3 17.7 0.00 0.00 0.00 100 1016.7
20260905181434 20 18 8.0 17.7 0.00 0.00 0.00 100 1016.7
20260905180934 20 27 12.9 16.1 0.00 0.00 0.00 100 1016.6
20260905180434 20 42 12.9 17.7 0.00 0.00 0.00 100 1016.6
20260905175934 21 42 12.9 17.7 0.00 0.00 0.00 100 1016.7
20260905175449 21 26 9.7 16.1 0.00 0.00 0.00 100 1016.7
20260905174934 20 31 11.3 16.1 0.00 0.00 0.00 100 1016.7
20260905174434 20 29 8.0 20.9 0.00 0.00 0.00 100 1016.6
20260905173934 21 11 9.7 20.9 0.00 0.00 0.00 100 1016.5
20260905173434 21 41 8.0 17.7 0.00 0.00 0.00 100 1016.5
20260905172934 21 58 11.3 17.7 0.00 0.00 0.00 100 1016.5
20260905172434 20 32 8.0 17.7 0.00 0.00 0.00 100 1016.5
20260905171934 21 22 9.7 16.1 0.00 0.00 0.00 100 1016.6
20260905171449 20 29 11.3 14.5 0.00 0.00 0.00 100 1016.6
20260905170949 20 34 9.7 14.5 0.00 0.00 0.00 100 1016.5
20260905170434 20 27 11.3 19.3 0.00 0.00 0.00 100 1016.5
20260905165934 21 18 6.4 19.3 0.00 0.00 0.00 100 1016.6
20260905165434 21 20 4.8 17.7 0.00 0.00 0.00 100 1016.6
20260905164934 22 15 12.9 17.7 0.00 0.00 0.00 100 1016.6
20260905164434 22 16 14.5 14.5 0.00 0.00 0.00 100 1016.6
20260905163934 22 359 4.8 17.7 0.00 0.00 0.00 100 1016.5
20260905163434 23 351 3.2 17.7 0.00 0.00 0.00 1 1016.7
20260905162934 23 40 9.7 17.7 0.00 0.00 0.00 4 1016.7
20260905162434 22 20 4.8 12.9 0.00 0.00 0.00 100 1016.6
20260905161934 22 24 9.7 14.5 0.00 0.00 0.00 100 1016.6
20260905161434 22 29 9.7 16.1 0.00 0.00 0.00 100 1016.6
20260905160934 22 26 8.0 16.1 0.00 0.00 0.00 100 1016.6
20260905160434 21 20 9.7 17.7 0.00 0.00 0.00 100 1016.5
20260905155934 21 25 9.7 19.3 0.00 0.00 0.00 100 1016.5
20260905155434 21 18 12.9 19.3 0.00 0.00 0.00 100 1016.5
20260905154949 21 22 9.7 14.5 0.00 0.00 0.00 100 1016.4
20260905154434 21 42 6.4 14.5 0.00 0.00 0.00 100 1016.2
20260905153934 21 25 6.4 19.3 0.00 0.00 0.00 100 1016.2
20260905153434 21 353 4.8 19.3 0.00 0.00 0.00 100 1016.2
20260905152934 21 46 16.1 19.3 0.00 0.00 0.00 100 1016.2
20260905152434 21 18 16.1 16.1 0.00 0.00 0.00 100 1016.2
20260905151934 21 34 4.8 14.5 0.00 0.00 0.00 100 1016.2
20260905151434 21 39 12.9 14.5 0.00 0.00 0.00 100 1016.1
20260905150934 21 23 8.0 14.5 0.00 0.00 0.00 100 1016.1
20260905150434 21 27 9.7 17.7 0.00 0.00 0.00 100 1016.1
20260905145934 21 23 11.3 17.7 0.00 0.00 0.00 100 1016.0